Weather reports worldwide

Advertisment
Capo Palinuro, Italy (16310): temperature & dewpoint: 11.08.2018 22:00:00 - 17.08.2018 22:00:00 (CEST)Capo Palinuro, Italy (16310): wind speed: 11.08.2018 22:00:00 - 17.08.2018 22:00:00 (CEST)Capo Palinuro, Italy (16310): wind direction: 11.08.2018 22:00:00 - 17.08.2018 22:00:00 (CEST)Capo Palinuro, Italy (16310): reduced air pressure: 11.08.2018 22:00:00 - 17.08.2018 22:00:00 (CEST)Capo Palinuro, Italy (16310): visibility: 11.08.2018 22:00:00 - 17.08.2018 22:00:00 (CEST)Capo Palinuro, Italy (16310): sunshine duration: 11.08.2018 22:00:00 - 17.08.2018 22:00:00 (CEST)
Date & Time tt [°C] td [°C] ff [km/h] ff [kn] dd ppp [hPa] vv [km] sd [min]
17.08.2018 22:00:00 25,0 23,2 9 5 SSW 1012,4 20 -
17.08.2018 21:00:00 25,6 23,1 9 5 SSW 1012,1 20 -
17.08.2018 20:00:00 26,0 23,3 0 0 N 1012,1 20 36
17.08.2018 19:00:00 27,0 23,2 8 4 SSW 1012,4 20 48
17.08.2018 18:00:00 27,4 22,4 11 6 WSW 1013,0 20 60
17.08.2018 17:00:00 27,6 22,5 9 5 WSW 1013,0 20 60
17.08.2018 16:00:00 27,8 22,7 8 4 SSW 1013,0 20 60
17.08.2018 15:00:00 27,4 22,8 9 5 SSW 1013,1 20 60
17.08.2018 14:00:00 27,2 22,4 11 6 WSW 1013,1 20 60
17.08.2018 13:00:00 27,0 22,4 9 5 SSW 1013,0 20 60
17.08.2018 12:00:00 26,6 22,2 9 5 SSW 1013,0 20 60
17.08.2018 11:00:00 26,0 21,2 9 5 WSW 1013,1 20 60
17.08.2018 10:00:00 25,0 20,7 11 6 SSW 1012,8 20 60
17.08.2018 09:00:00 24,4 20,3 11 6 N 1012,7 20 60
17.08.2018 08:00:00 23,4 20,2 13 7 WSW 1012,4 20 60
17.08.2018 07:00:00 23,0 20,2 11 6 WSW 1012,3 20 -
17.08.2018 06:00:00 23,0 20,3 11 6 SE 1012,3 20 -
17.08.2018 05:00:00 23,0 20,3 9 5 WSW 1012,3 20 -
17.08.2018 04:00:00 23,0 20,9 11 6 SW 1012,3 20 -
17.08.2018 03:00:00 - - - - - - - -
17.08.2018 02:00:00 23,0 20,9 9 5 WNW 1012,3 20 -
17.08.2018 01:00:00 23,6 21,5 11 6 SW 1012,2 20 -
17.08.2018 00:00:00 23,4 20,9 9 5 SSE 1012,0 20 -
16.08.2018 23:00:00 23,0 20,9 15 8 WSW 1011,9 20 -
16.08.2018 22:00:00 23,0 21,1 11 6 W 1011,7 20 -
16.08.2018 21:00:00 22,8 20,7 13 7 WSW 1011,5 20 -
16.08.2018 20:00:00 23,0 20,3 18 10 WSW 1011,6 20 0
16.08.2018 19:00:00 23,0 21,5 21 11 SSW 1011,3 20 12
16.08.2018 18:00:00 26,4 22,5 11 6 SW 1011,0 20 48
16.08.2018 17:00:00 26,8 22,9 9 5 SSE 1011,0 20 60
16.08.2018 16:00:00 27,2 21,9 13 7 SSE 1011,0 20 60
16.08.2018 15:00:00 27,4 20,7 11 6 S 1010,9 20 60
16.08.2018 14:00:00 27,0 20,6 13 7 SSW 1010,9 20 60
16.08.2018 13:00:00 27,2 20,5 11 6 SSW 1010,9 20 60
16.08.2018 12:00:00 26,4 22,2 11 6 N 1011,0 20 60
16.08.2018 11:00:00 26,0 21,9 13 7 SE 1010,9 20 60
16.08.2018 10:00:00 25,0 20,9 5 3 WNW 1010,9 20 60
16.08.2018 09:00:00 24,4 20,7 5 3 SSW 1010,9 20 60
16.08.2018 08:00:00 23,8 20,5 9 5 WNW 1010,9 20 60
16.08.2018 07:00:00 22,4 19,8 11 6 N 1010,8 20 0
16.08.2018 06:00:00 22,0 19,5 8 4 NNE 1010,8 20 -
16.08.2018 05:00:00 23,0 20,9 9 5 NNE 1011,1 20 -
16.08.2018 04:00:00 22,4 20,1 9 5 NW 1011,3 20 -
16.08.2018 03:00:00 22,8 20,2 9 5 NNE 1011,5 20 -
16.08.2018 02:00:00 22,4 20,3 8 4 NW 1011,5 20 -
16.08.2018 01:00:00 23,2 20,9 8 4 W 1011,4 20 -
16.08.2018 00:00:00 23,0 20,5 5 3 NNE 1011,5 20 -
15.08.2018 23:00:00 24,0 21,9 8 4 NW 1011,2 20 -
15.08.2018 22:00:00 24,0 21,7 8 4 NW 1011,2 20 -
15.08.2018 21:00:00 24,0 19,9 9 5 WNW 1011,2 20 -
15.08.2018 20:00:00 25,0 20,7 8 4 WNW 1011,0 20 0
15.08.2018 19:00:00 25,6 21,3 9 5 WNW 1011,0 20 60
15.08.2018 18:00:00 26,6 23,3 8 4 WNW 1011,0 20 60
15.08.2018 17:00:00 25,0 21,3 11 6 SSW 1011,1 20 60
15.08.2018 16:00:00 22,8 19,2 13 7 S 1011,4 20 60
15.08.2018 15:00:00 22,8 20,0 15 8 S 1011,4 20 18
15.08.2018 14:00:00 21,8 18,8 9 5 WNW 1011,4 20 0
15.08.2018 13:00:00 21,2 18,2 15 8 NNW 1011,4 12 0
15.08.2018 12:00:00 21,0 18,4 11 6 WNW 1011,4 8 0
15.08.2018 11:00:00 21,2 18,6 13 7 WNW 1011,4 7 0
15.08.2018 10:00:00 22,4 19,8 5 3 N 1011,3 15 0
15.08.2018 09:00:00 22,4 19,8 5 3 ENE 1011,3 15 0
15.08.2018 08:00:00 22,0 19,2 8 4 WSW 1011,3 10 0
15.08.2018 07:00:00 22,6 19,6 8 4 ENE 1011,3 5 -
15.08.2018 06:00:00 23,0 21,2 5 3 E 1011,0 4,0 -
15.08.2018 05:00:00 25,2 22,9 11 6 ENE 1011,0 10 0
15.08.2018 04:00:00 - - - - - - - -
15.08.2018 03:00:00 - - - - - - - -
15.08.2018 02:00:00 25,8 22,5 0 0 N 1011,9 20 -
15.08.2018 01:00:00 25,4 21,5 4 2 N 1011,9 20 -
15.08.2018 00:00:00 25,4 21,7 0 0 N 1011,9 20 -
14.08.2018 23:00:00 25,6 23,7 0 0 N 1011,8 20 -
14.08.2018 22:00:00 - - - - - - - -
14.08.2018 21:00:00 25,6 22,3 4 2 NNW 1011,8 20 -
14.08.2018 20:00:00 27,2 22,2 5 3 N 1011,8 20 0
14.08.2018 19:00:00 27,4 21,0 8 4 NNW 1011,8 20 12
14.08.2018 18:00:00 27,0 22,6 9 5 NNW 1012,1 18 36
14.08.2018 17:00:00 28,4 25,2 8 4 W 1012,2 20 60
14.08.2018 16:00:00 30,0 26,2 8 4 S 1012,0 20 60
14.08.2018 15:00:00 30,4 25,9 9 5 WSW 1012,4 20 60
14.08.2018 14:00:00 30,4 25,9 11 6 SSW 1012,8 20 60
14.08.2018 13:00:00 30,6 25,7 8 4 S 1012,8 20 60
14.08.2018 12:00:00 30,0 25,1 11 6 S 1012,8 20 60
14.08.2018 11:00:00 29,0 25,2 9 5 SSW 1012,8 20 60
14.08.2018 10:00:00 28,6 25,2 13 7 WSW 1012,7 20 60
14.08.2018 09:00:00 27,8 25,6 11 6 SW 1012,7 20 60
14.08.2018 08:00:00 26,0 23,9 8 4 WSW 1012,4 20 54
14.08.2018 07:00:00 26,0 24,0 0 0 N 1012,3 20 0
14.08.2018 06:00:00 26,0 25,7 0 0 N 1012,2 20 -
14.08.2018 05:00:00 25,8 25,8 9 5 NW 1012,5 20 -
14.08.2018 04:00:00 25,8 22,7 11 6 NW 1012,8 20 -
14.08.2018 03:00:00 26,0 24,2 9 5 WNW 1012,8 20 -
14.08.2018 02:00:00 27,0 25,2 9 5 NW 1012,9 20 -
14.08.2018 01:00:00 26,8 24,5 0 0 N 1012,9 20 -
14.08.2018 00:00:00 27,2 25,2 8 4 NNW 1012,9 20 -
13.08.2018 23:00:00 27,2 25,4 0 0 N 1012,9 20 -
13.08.2018 22:00:00 27,8 26,2 9 5 NW 1012,8 20 -
13.08.2018 21:00:00 28,2 26,6 11 6 WNW 1012,8 20 -
13.08.2018 20:00:00 29,4 26,4 0 0 N 1012,9 20 30
13.08.2018 19:00:00 30,0 26,2 8 4 WSW 1013,0 20 60
13.08.2018 18:00:00 30,6 26,5 11 6 SW 1013,2 20 60
13.08.2018 17:00:00 31,0 26,5 15 8 WSW 1013,8 20 60
13.08.2018 16:00:00 31,0 26,7 11 6 WSW 1014,1 20 60
13.08.2018 15:00:00 31,0 26,9 13 7 SW 1014,3 20 60
13.08.2018 14:00:00 31,0 27,1 13 7 SW 1014,8 20 60
13.08.2018 13:00:00 31,4 27,1 15 8 WSW 1014,7 20 60
13.08.2018 12:00:00 30,2 25,9 15 8 WSW 1014,6 20 60
13.08.2018 11:00:00 29,4 26,0 13 7 SW 1014,7 20 60
13.08.2018 10:00:00 28,2 25,8 4 2 NE 1014,6 20 60
13.08.2018 09:00:00 27,4 24,7 5 3 SE 1014,3 20 60
13.08.2018 08:00:00 26,4 24,1 4 2 E 1014,2 20 0
13.08.2018 07:00:00 26,0 24,4 5 3 E 1014,2 20 -
13.08.2018 06:00:00 26,0 24,0 5 3 N 1014,4 20 -
13.08.2018 05:00:00 26,0 23,7 4 2 N 1014,8 20 -
13.08.2018 04:00:00 26,8 25,4 5 3 N 1014,9 20 -
13.08.2018 03:00:00 - - - - - - - -
13.08.2018 02:00:00 26,8 25,0 0 0 N 1015,2 20 -
13.08.2018 01:00:00 26,8 25,0 0 0 N 1015,2 20 -
13.08.2018 00:00:00 27,0 25,2 0 0 N 1015,1 20 -
12.08.2018 23:00:00 27,6 26,0 0 0 N 1015,1 20 -
12.08.2018 22:00:00 27,8 26,4 0 0 N 1015,0 20 -
12.08.2018 21:00:00 28,0 26,8 4 2 N 1015,0 20 -
12.08.2018 20:00:00 28,6 26,4 8 4 NNW 1015,1 20 60
12.08.2018 19:00:00 29,8 27,2 5 3 N 1015,3 20 60
12.08.2018 18:00:00 30,2 27,0 5 3 NNW 1015,7 20 60
12.08.2018 17:00:00 30,2 26,6 8 4 NNW 1015,8 20 60
12.08.2018 16:00:00 30,2 27,2 8 4 W 1015,9 20 60
12.08.2018 15:00:00 30,2 26,8 8 4 SW 1016,1 20 60
12.08.2018 14:00:00 30,2 26,4 9 5 WNW 1016,2 20 60
12.08.2018 13:00:00 30,0 26,6 8 4 WSW 1016,3 20 60
12.08.2018 12:00:00 30,2 25,9 8 4 SW 1016,2 20 60
12.08.2018 11:00:00 29,0 25,6 5 3 SSW 1016,3 20 60
12.08.2018 10:00:00 28,4 25,6 9 5 SSW 1015,9 20 60
12.08.2018 09:00:00 27,0 22,8 9 5 SSE 1016,1 20 60
12.08.2018 08:00:00 26,6 23,3 11 6 NW 1016,1 20 60
12.08.2018 07:00:00 26,4 24,2 11 6 ESE 1016,1 20 -
12.08.2018 06:00:00 26,2 22,9 9 5 SSE 1016,1 20 -
12.08.2018 05:00:00 26,0 23,9 8 4 SSE 1016,2 20 -
12.08.2018 04:00:00 26,2 24,4 8 4 NNE 1016,1 20 -
12.08.2018 03:00:00 26,4 24,6 9 5 ESE 1016,3 20 -
12.08.2018 02:00:00 26,4 23,9 9 5 SSW 1016,4 20 -
12.08.2018 01:00:00 26,4 24,8 9 5 NE 1016,4 20 -
12.08.2018 00:00:00 26,6 24,8 9 5 S 1016,4 20 -
11.08.2018 23:00:00 26,4 23,9 9 5 NNE 1016,2 20 -
11.08.2018 22:00:00 26,2 23,9 9 5 SSW 1016,1 20 -

tt = temperature
td = dewpoint
ff = wind speed
dd = wind direction
ppp = reduced air pressure
vv = visibility
sd = sunshine duration

Next stations